Regional Weather Roundup
Issued by NWS Wakefield, VA

Home | Current Version | Previous Version | Graphics & Text | Print | Product List | Glossary On
Versions: 1 2 3 4 5 6 7 8 9 10 11 12 13 14 15 16 17 18 19 20 21 22 23 24 25 26 27 28 29 30 31 32 33 34 35 36 37 38 39 40 41 42 43 44 45 46 47 48 49 50
000
ASUS41 KAKQ 191610
RWRAKQ

REGIONAL WEATHER ROUNDUP
NATIONAL WEATHER SERVICE WAKEFIELD VA
1200 PM EDT FRI SEP 19 2014

Note: "fair" indicates few or no clouds below 12,000 feet with no
significant weather and/or obstructions to visibility. * = Denotes
station may not report precipitation (e.g., rain,snow,etc.),
thunder or fog.

VAZ042-051-052>054-056-191700-
NORTHERN VIRGINIA

CITY           SKY/WX    TMP DP  RH WIND       PRES   REMARKS
WASH NATIONAL  PTSUNNY   73  56  54 NE5       30.27S
DULLES         PTSUNNY   67  54  63 E6        30.28R
FORT BELVOIR   MOSUNNY   70  57  63 VRB3      30.28R
QUANTICO       MOSUNNY   71  57  61 N7        30.27S
FREDERICKSBRG* MOSUNNY   71  60  69 NE6       30.25S
STAFFORD*      SUNNY     71  58  62 E8        30.30S
WARRENTON      SUNNY     72  62  69 E3        30.26S
CULPEPER*      PTSUNNY   70  55  60 CALM      30.28S
MANASSAS*      NOT AVBL
LEESBURG*      CLOUDY    66  55  68 E6        30.29S
WINCHESTER     MOSUNNY   66  50  55 E5        30.27F
FRONT ROYAL*   PTSUNNY   64  54  68 NE3       30.26S
LURAY*         CLOUDY    70  54  56 CALM      30.26S
$$

VAZ048-049-060>072-079>083-191700-
CENTRAL AND SOUTH CENTRAL VIRGINIA...AND NORTH CENTRAL NORTH CAROLINA

CITY           SKY/WX    TMP DP  RH WIND       PRES   REMARKS
RICHMOND       PTSUNNY   74  57  55 NE5       30.25R
CHESTERFIELD*  CLOUDY    70  55  60 E3        30.26R
PETERSBURG*    CLOUDY    68  58  70 NE6       30.25S
HANOVER        PTSUNNY   72  59  63 SE3       30.26S
TAPPAHANNOCK*  MOSUNNY   73  58  59 E3        30.25S
CHARLOTTSVILLE CLOUDY    63  54  72 NE6       30.27R
ORANGE*        CLOUDY    64  55  72 N5        30.28S
LOUISA*        CLOUDY    66  61  82 NE5       30.25S
FARMVILLE*     CLOUDY    66  57  72 E6        30.23F
CREWE*         CLOUDY    64  57  79 NE3       30.24F
FORT PICKETT*  CLOUDY    65  61  87 NE6       30.24S
LUNENBURG*     CLOUDY    65  62  87 NE6       30.24S
SOUTH HILL*    MOSUNNY   70  64  83 NE5       30.28S
LAWRENCEVILLE* CLOUDY    68  62  81 E5        30.23S
ROANOKE RAPIDS MOSUNNY   73  59  60 SE7       30.21S
RALEIGH        MOSUNNY   77  56  48 E12G22    30.20R
$$

VAZ088>098-191700-
SOUTHEAST VIRGINIA

CITY           SKY/WX    TMP DP  RH WIND       PRES   REMARKS
NORFOLK        MOSUNNY   74  57  55 NE9       30.23R
VIRGINIA BEACH PTSUNNY   76  60  57 E9        30.22S
NORFOLK NAVAL  PTSUNNY   77  57  50 NE12      30.24S
WEST POINT*    CLOUDY    76  59  56 E5        30.26R
NEWPORT NEWS   PTSUNNY   79  57  46 E8        30.23S
LANGLEY AFB    PTSUNNY   75  58  55 E8        30.23R
FORT EUSTIS    MOSUNNY   75  51  42 VRB6      30.22S
WILLIAMSBURG*  PTSUNNY   75  63  64 CALM      30.25R
HR EXEC AP*    PTSUNNY   75  59  57 E5        30.24S
FRANKLIN*      PTSUNNY   73  61  64 E8        30.22S
WAKEFIELD      LGT RAIN  70  63  78 N3        30.24R
$$

VAZ020-022-025-037-045-191700-
WEST CENTRAL AND SOUTHWEST VIRGINIA

CITY           SKY/WX    TMP DP  RH WIND       PRES   REMARKS
STAUNTON*      CLOUDY    63  51  65 N5        30.28S
HOT SPRINGS VA CLOUDY    51  47  85 E6        30.31S FOG
LYNCHBURG      CLOUDY    62  61  96 NE5       30.26S
DANVILLE       CLOUDY    69  61  75 CALM      30.23S
SOUTH BOSTON*  NOT AVBL
MARTINSVILLE   CLOUDY    65  64  97 NE3       30.25S
ROANOKE        LGT RAIN  63  60  90 SE9       30.26S FOG
BLACKSBURG     CLOUDY    64  64 100 E7        30.26S
DUBLIN*        MOSUNNY   70  65  85 E7        30.24S
MARION*        MOSUNNY   72  60  66 SE6       30.23F
HILLSVILLE*    LGT RAIN  62  60  93 SE7       30.25R
RICHLANDS*     SUNNY     73  60  63 SE7       30.19S
WISE*          PTSUNNY   72  55  56 SE9       30.21R
ABINGDON*      MOSUNNY   76  61  60 S7        30.18S
$$

MDZ021>025-VAZ099-100-191700-
SOUTHERN MARYLAND AND THE DELMARVA PENINSULA

CITY           SKY/WX    TMP DP  RH WIND       PRES   REMARKS
PATUXENT RIVER PTSUNNY   71  58  63 VRB5      30.26R
BAY BRIDGE APT   N/A     70  55  60 NE6       30.27S
LEONARDTOWN    MOSUNNY   68  55  64 E6        30.27S
DOVER          CLOUDY    70  60  71 NE13      30.26R
GEORGETOWN     PTSUNNY   73  60  63 E21       30.25F
EASTON         MOSUNNY   73  61  64 E3        30.29S
CAMBRIDGE      MOSUNNY   73  59  60 E7        30.25S
SALISBURY      MOSUNNY   75  57  53 NE6       30.24S
OCEAN CITY     CLOUDY    72  59  63 E7        30.24S
WALLOPS ISLAND PTSUNNY   74  59  59 E8        30.25R
ACCOMACK*      CLOUDY    73  55  53 SE5       30.24R
$$

NCZ012>017-030>032-191700-
EASTERN NORTH CAROLINA

CITY           SKY/WX    TMP DP  RH WIND       PRES   REMARKS
ELIZABETH CITY MOSUNNY   77  59  53 E13       30.22R
AHOSKIE*       MOSUNNY   74  59  59 E7        30.22R
EDENTON*       MOSUNNY   76  60  56 E12G17    30.21S
CURRITUCK*     MOSUNNY   76  55  48 NE7       30.23S
KILL DEVIL HLS MOSUNNY   76  58  53 E8        30.20S
MANTEO         MOSUNNY   75  58  56 NE15G21   30.21S
CAPE HATTERAS  PTSUNNY   76  63  64 NE13G25   30.17S
TARBORO*       PTSUNNY   77  59  54 E3        30.21R
GOLDSBORO      SUNNY     78  63  58 E12       30.16S
WASHINGTON     SUNNY     76  59  55 E12       30.19S
GREENVILLE     SUNNY     77  61  57 NE12      30.20S
NEW BERN       MOSUNNY   79  61  53 E13       30.18S
WILMINGTON     PTSUNNY   77  66  68 E16G23    30.13S
$$

VAZ048-191700-
ELSEWHERE

CITY           SKY/WX    TMP DP  RH WIND       PRES   REMARKS
HARRISBURG PA  SUNNY     67  49  52 VRB7      30.30R
BALTIMORE      PTSUNNY   67  55  65 E9        30.28R
ANNAPOLIS      PTSUNNY   67  57  70 VRB3      30.28R
ANDREWS AFB    MOSUNNY   69  57  64 E7        30.27R
WILMINGTON DE  CLOUDY    66  54  65 NE15      30.31R
PHILADELPHIA   CLOUDY    65  52  62 NE12      30.32R
WILDWOOD NJ*   PTSUNNY   70  55  60 NE17G24   30.28R
ATLANTIC CITY  CLOUDY    66  55  67 NE17G25   30.29R
HENDERSON NC   CLOUDY    72  59  63 E7        30.22S
GREENSBORO     CLOUDY    71  57  61 E9        30.20S
ROCKY MOUNT    SUNNY     77  57  50 E8        30.20R
FAYETTEVILLE   PTSUNNY   76  58  53 E9        30.16S
CHARLOTTE      CLOUDY    73  60  63 E7        30.18S
$$

VAZ100-191700-
MARINE

STATION/POSITION TIME  TEMP    WIND        PRES    WAVE   SWELL
                       AIR SEA DIR/SP/G            HT/PER HT/PER
                 (UTC) (F)     (DEG/KT/KT) (MB)    (FT/S) (FT/S)
44066 TX TWR #4  1600   66 72   50/ 21/ 25 1024.4R   6/ 6   2/10
CAPE MAY NJ      1600   69 76   70/ 11/ 19 1024.3R
LEWES DE         1600   69 72   90/ 21/ 25 1024.0S
15NM E FENWICK I 1600   70 72              1023.8R   3/11
OCEAN-CITY-INLET 1600   72 72   70/  5/  8 1023.7R
WACHAPREAGUE VA  1600   72 73   50/  6/  9 1023.8S
THOMAS POINT MD  1600   65 74   50/  5/  6 1026.2R
GOOSES REEF MD   1600   65      60/ 10/ 12 1025.1S
COVE POINT MD    1600   66     360/  5/  7 1024.5R
SOLOMONS ISLAND  1600      76                N/A
BISHOPS HEAD MD  1600   72 72   50/  6/  8 1023.7R
PINEY POINT MD   1600          110/  5/  7   N/A
POTOMAC MD       1600   69      60/  8/ 10 1023.6R
CAMBRIDGE MD     1600   69 73   70/  5/  8 1024.1S
LEWISETTA VA     1600   70 74   70/  5/  7 1023.9S
RAPPAHANNOCK LGT 1600           20/  7/  8 1024.4R
STINGRAY PT      1600   72      50/ 10/ 12   N/A
YORK RVR RNG VA  1600   73      90/  5/  7 1023.4R
YORKTOWN VA      1600   73 76   90/  5/  8 1023.5S
JAMESTOWN VA     1600   71     120/  4/  6   N/A
DOMINION TERM VA 1600   74     100/  5/  8 1023.7S
KIPTOPEKE VA     1600      79  120/ 11/ 14   N/A
CHES BAY BRIDGE  1600   72 76   60/  8/ 10 1023.3R
CAPE HENRY VA    1600   72      80/ 10/ 11 1022.5R
CHESAPEAKE LGHT  1500   71      80/ 11/ 12 1023.9R
WILLOUBY STN VA  1600   72      90/  9/ 10 1022.4S
S CRANEY ISL VA  1600           40/  7/  9 1023.3R
CAPE HENRY BUOY  1600      75                N/A     3/ 7
1ST LANDING BUOY 1600   73      90/  8/ 10 1023.3S
CAPE CHARLES BUO 1600      75                N/A     3/10   2/10
OFFSHORE WE BUOY 1600      74                N/A     3/ 7   3/ 7
64NM E OF VA BCH 1600   73 76   60/ 12/ 16 1022.9R   4/ 7   3/ 7
DUCK PIER NC     1600   73 75   70/ 14/ 16 1022.5S
44100 DUCK FRF   1600      74                N/A     4/ 5   2/12
44056 DUCK FRF   1600                        N/A     3/ 7   2/11
OREGON INLET NC  1600   74 73   40/ 14/ 17 1022.4R
HATTERAS NC      1600   76 75   50/ 13/ 17 1021.9F
DIAMOND SHLS NC  1600   78      50/ 17/ 23 1020.9R   6/ 7
CAPE LOOKOUT NC  1500   76      50/ 20/ 24 1020.6R
$$



USA.gov is the U.S. government's official web portal to all federal, state and local government web resources and services.